Regional Weather Roundup
Issued by NWS

Home | Current Version | Previous Version | Text Only | Print | Product List | Glossary On
Versions: 1 2 3 4 5 6 7 8 9 10 11 12 13 14 15 16 17 18 19 20 21 22 23 24 25 26 27 28 29 30 31 32 33 34 35 36 37 38 39 40 41 42 43 44 45 46 47 48 49 50
000
ASUS45 KABQ 231310
RWRNM
NEW MEXICO REGIONAL WEATHER ROUNDUP
NATIONAL WEATHER SERVICE ALBUQUERQUE NM
700 AM MDT TUE MAY 23 2017

NOTE: "FAIR" MEANS FEW OR NO CLOUDS BELOW 12,000 FEET AGL WITH NO
       SIGNIFICANT WEATHER OR OBSTRUCTIONS TO VISION.

      THIS PRODUCT IS RELEASED AS TWO VERSIONS.  ONE VERSION NEAR
      THE TOP OF THE HOUR CONTAINING PRELIMINARY DATA FROM ALBUQUERQUE
      AND OTHER STATIONS.  A FINAL VERSION WITH ADDITIONAL DATA IS
      ISSUED ABOUT 10 MINUTES AFTER THE HOUR.

NMZ501-503-504-510>518-231400-
NORTHWEST PLATEAU/NORTHCENTRAL MOUNTAINS

CITY           SKY/WX    TMP DP  RH WIND       PRES   REMARKS
FARMINGTON     FAIR      52  33  48 W8        30.15R
LOS ALAMOS     CLOUDY    46  39  76 S8        30.21R
SANTA FE       CLOUDY    47  41  80 S12       30.18R
TAOS           PTSUNNY   45  28  53 N14       30.21R
ANGEL FIRE     CLOUDY    35  30  84 N9        30.26R WCI  27

$$
NMZ402-403-502-505>509-231400-
WESTCENTRAL MOUNTAINS/SOUTHWEST MOUNTAINS

CITY           SKY/WX    TMP DP  RH WIND       PRES   REMARKS
GALLUP         FAIR      39  26  59 E5        30.23R
GRANTS         FAIR      41  23  49 CALM      30.22R
SILVER CITY    FAIR      58  19  22 NW9       30.13R

$$
NMZ407-409-411-412-231400-
SOUTHERN DESERTS

CITY           SKY/WX    TMP DP  RH WIND       PRES   REMARKS
DEMING         FAIR      59  24  26 CALM      30.06R
LAS CRUCES     FAIR      66  25  21 N9        30.06S
HOLLOMAN AFB   FAIR      55  35  47 E7        30.08R
ALAMOGORDO     FAIR      54  25  32 E3        30.06R
T OR C         FAIR      60  21  22 N6        30.09R

$$
NMZ519>523-231400-
CENTRAL VALLEYS/CENTRAL HIGHLANDS

CITY           SKY/WX    TMP DP  RH WIND       PRES   REMARKS
ALBUQUERQUE    FAIR      56  42  59 E10       30.14R
DOUBLE EAGLE   MOSUNNY   48  41  76 NW8       30.16R
MORIARTY ARPT  CLOUDY    49  42  75 E9        30.22R
CLINES CORNERS CLOUDY    42  37  82 E14       30.22S
BELEN          FAIR      53  35  51 W7        30.14R
SOCORRO        FAIR      57  39  51 NW3       30.13R

$$
NMZ524>526-539-540-231400-
SOUTHCENTRAL MOUNTAINS

CITY           SKY/WX    TMP DP  RH WIND       PRES   REMARKS
RUIDOSO        CLOUDY    45  41  87 SE13      30.24R

$$
NMZ527>531-231400-
NORTHEAST HIGHLANDS/NORTHEAST PLAINS

CITY           SKY/WX    TMP DP  RH WIND       PRES   REMARKS
LAS VEGAS      CLOUDY    36  32  85 NE16G25   30.24R WCI  26
RATON          CLOUDY    42  33  70 N10       30.23R
CLAYTON        CLOUDY    44  38  79 NW14      30.17F

$$
NMZ532>537-231400-
EASTCENTRAL PLAINS

CITY           SKY/WX    TMP DP  RH WIND       PRES   REMARKS
SANTA ROSA     CLOUDY    47  39  74 N9        30.19R
TUCUMCARI      CLOUDY    49  46  90 N7        30.18R
CANNON AFB     CLOUDY    47  47 100 N20G26    30.16R
CLOVIS AIRPORT CLOUDY    46  39  76 N18       30.15R

$$
NMZ028-029-538-231400-
SOUTHEAST PLAINS

CITY           SKY/WX    TMP DP  RH WIND       PRES   REMARKS
ROSWELL        CLOUDY    55  42  61 N20       30.16R
ARTESIA        PTSUNNY   57  48  72 N18       30.14R
CARLSBAD       CLOUDY    58  56  93 N18       30.10R
HOBBS          PTSUNNY   54  46  76 N20G28    30.11R


$$




USA.gov is the U.S. government's official web portal to all federal, state and local government web resources and services.